Flag for Belgium Weather past 2 weeks in Antwerp, Belgium

Now
57 °F

Scattered clouds.


Feels Like: 54 °F
Forecast: 47 / 64 °F
Wind: 15 mph from West

Location: Antwerp / Deurne

Current Time: May 30, 2015 at 1:20:02 PM

Latest Report: May 30, 2015 at 12:50 PM


Visibility: N/A

Pressure: 29.95 "Hg

Humidity: 55%

Dew point: 41 °F

Location of AntwerpLocation

Historic Weather in Antwerp — Graph

°F

Antwerp temperature yesterday

Maximum temperature yesterday: 59 °F (at 12:50 PM)
Minimum temperature yesterday: 50 °F (at 4:50 AM)
Average temperature yesterday: 54 °F

Past Weeks' High & Low Weather Summary

 TemperatureHumidityPressure
High68 °F (May 22, 4:50 PM)94% (May 16, 1:20 PM)30.36 "Hg (May 16, 1:20 PM)
Low41 °F (May 17, 1:20 AM)30% (May 24, 4:50 PM)29.65 "Hg (May 18, 8:20 PM)
Average55 °F66%30.07 "Hg
* Reported May 15 11:20 AM — May 30 11:50 AM, Antwerp, Weather by CustomWeather, © 2015

Note: Actual official high and low records may vary slightly from our data, if they occured in-between our weather recording intervals... More about our weather records

Advertising

Antwerp weather history for previous 24 hours

 ConditionsComfort  
Time TempWeatherWind HumidityBarometerVisibility
11:50 AM
Sat, May 30
50 °FSprinkles. Partly sunny.16 mph76%29.98 "Hg4 mi
11:20 AM57 °FScattered clouds.15 mph48%29.95 "HgN/A
10:50 AM55 °FScattered clouds.17 mph55%29.95 "HgN/A
10:20 AM55 °FScattered clouds.14 mph63%29.92 "HgN/A
9:50 AM55 °FScattered clouds.14 mph63%29.92 "HgN/A
9:20 AM54 °FPassing clouds.12 mph67%29.92 "HgN/A
8:50 AM54 °FPassing clouds.10 mph72%29.92 "HgN/A
8:20 AM52 °FPassing clouds.9 mph72%29.89 "HgN/A
7:50 AM50 °FPassing clouds.8 mph76%29.89 "HgN/A
7:20 AM48 °FPassing clouds.9 mph76%29.89 "HgN/A
6:50 AM46 °FPassing clouds.8 mph82%29.89 "HgN/A
6:20 AM46 °FPassing clouds.8 mph82%29.89 "HgN/A
5:50 AM46 °FClear.7 mph82%29.86 "Hg10 mi
5:20 AM46 °FClear.7 mph82%29.86 "Hg10 mi
4:50 AM46 °FClear.7 mph87%29.86 "Hg10 mi
4:20 AM46 °FClear.8 mph87%29.86 "Hg10 mi
3:50 AM48 °FClear.7 mph82%29.83 "Hg10 mi
3:20 AM48 °FClear.7 mph87%29.83 "Hg10 mi
2:50 AM50 °FSprinkles. Partly cloudy.9 mph82%29.83 "HgN/A
2:20 AM50 °FPassing clouds.9 mph82%29.83 "HgN/A
1:50 AM50 °FPassing clouds.9 mph88%29.83 "HgN/A
1:20 AM50 °FPassing clouds.7 mph88%29.80 "HgN/A
12:50 AM50 °FClear.7 mph88%29.80 "Hg10 mi
12:20 AM50 °FPassing clouds.8 mph88%29.80 "HgN/A
11:50 PM
Fri, May 29
50 °FPassing clouds.7 mph88%29.80 "HgN/A
11:20 PM50 °FPassing clouds.6 mph88%29.80 "HgN/A
10:50 PM50 °FPartly cloudy.8 mph82%29.80 "HgN/A
10:20 PM50 °FPartly sunny.8 mph82%29.77 "HgN/A
9:50 PM50 °FScattered clouds.9 mph82%29.77 "HgN/A
9:20 PM50 °FScattered clouds.8 mph82%29.77 "HgN/A
8:50 PM50 °FRain. Partly sunny.8 mph82%29.77 "HgN/A
8:20 PM50 °FLight rain. Partly sunny.9 mph82%29.77 "HgN/A
7:50 PM50 °FLight rain. Partly sunny.10 mph82%29.77 "HgN/A
7:20 PM52 °FLight rain. Partly sunny.13 mph77%29.77 "HgN/A
6:50 PM52 °FLight rain. Broken clouds.20 mph77%29.77 "HgN/A
6:20 PM55 °FSprinkles. Partly sunny.16 mph72%29.74 "HgN/A
5:50 PM57 °FSprinkles. Broken clouds.14 mph67%29.74 "HgN/A
5:20 PM57 °FSprinkles. Broken clouds.16 mph63%29.77 "HgN/A
4:50 PM59 °FBroken clouds.16 mph55%29.77 "HgN/A
4:20 PM59 °FPartly sunny.15 mph55%29.77 "HgN/A
3:50 PM59 °FScattered clouds.17 mph55%29.77 "HgN/A
3:20 PM59 °FPartly sunny.16 mph51%29.80 "HgN/A
2:50 PM59 °FPassing clouds.17 mph48%29.77 "HgN/A
2:20 PM59 °FScattered clouds.16 mph51%29.80 "HgN/A
1:50 PM59 °FScattered clouds.15 mph48%29.80 "HgN/A
1:20 PM59 °FScattered clouds.14 mph48%29.80 "HgN/A
Weather by CustomWeather, © 2015

See weather overviewHow to use our weather pages